Regional Weather Roundup
Issued by NWS Grand Forks, ND

Home | Current Version | Previous Version | Graphics & Text | Print | Product List | Glossary On
Versions: 1 2 3 4 5 6 7 8 9 10 11 12 13 14 15 16 17 18 19 20 21 22 23 24 25 26 27 28 29 30 31 32 33 34 35 36 37 38 39 40 41 42 43 44 45 46 47 48 49 50
000
ASUS43 KFGF 301510
RWRFGF
PRAIRIE TO PINES  WEATHER ROUNDUP
NATIONAL WEATHER SERVICE EASTERN NORTH DAKOTA/GRAND FORKS ND
1000 AM CDT TUE SEP 30 2014

 **SATELLITE DATA USED TO AUGMENT SKY COVER AT AUTOMATED STATIONS**
 *****  WEATHER ACROSS EASTERN NORTH DAKOTA  *****

CITY           SKY/WX    TMP DP  RH WIND       PRES   REMARKS
GRAND FORKS    CLOUDY    46  42  86 SE15      29.92F
GRAND FRKS AFB CLOUDY    44  44  99 SE13      29.91F
GRAND FRKS NWS   N/A     45 N/A N/A SE15        N/A
DEVILS LAKE    CLOUDY    46  39  76 SE18G25   29.81F
FARGO          PTSUNNY   50  43  77 SE18G24   29.90F
WAHPETON ARPT  CLOUDY    45  41  87 SE16G23   29.91F
$$

 ***** WEATHER ACROSS CENTRAL AND WESTERN NORTH DAKOTA  *****

CITY           SKY/WX    TMP DP  RH WIND       PRES   REMARKS
BISMARCK       CLOUDY    54  50  86 E20G25    29.69F
MINOT          FOG       49  48  97 E13       29.74F VSB 1
JAMESTOWN      CLOUDY    47  44  90 E16G23    29.80R
MINOT AFB      CLOUDY    48  48 100 E17       29.73F FOG
GARRISON         N/A     52  50  93 SE14      29.71F
WILLISTON      CLOUDY    54  51  90 SE5       29.68F
DICKINSON      LGT RAIN  51  50  96 E14       29.63S
HETTINGER      FOG       52  50  93 E14       29.60F VSB 1/2
$$

 *****  OTHER AIRPORT OBSERVATIONS IN OUR AREA  *****

CITY           SKY/WX    TMP DP  RH WIND       PRES   REMARKS
WALHALLA       CLOUDY    43  43 100 SE15G23   29.91F
GRAFTON AIRPOR CLOUDY    45  45 100 SE18      29.93F
VALLEY CITY AR CLOUDY    46  46 100 E17G23    29.82F
CANDO          CLOUDY    46  45  93 SE15G25   29.82F
CAVALIER APRT  CLOUDY    45  43  93 SE14G20   29.92F
GWINNER        CLOUDY    48  46  93 SE23G31   29.84F
SHEYENNE NWR     N/A     48  44  86 SE15      29.95
ROLLA          CLOUDY    45  45 100 SE15      29.83F
 ***** THE ABOVE OBSERVATIONS ARE NON NWS ARE NOT QUALITY
       CONTROLLED AND MAY MIS-REPORT RAIN FOR SNOW...
$$

  *****  WEATHER ACROSS NORTHERN MINNESOTA  *****

CITY           SKY/WX    TMP DP  RH WIND       PRES   REMARKS
FLAG ISLAND    CLOUDY    45  43  93 SE14      30.02F
WARROAD        CLOUDY    45  41  87 SE14      30.02S
ROSEAU         CLOUDY    46  41  81 SE12G18   30.00F
HALLOCK        PTSUNNY   48  45  87 SE17      29.94F
THF RVR FALLS  CLOUDY    46  43  87 E15       29.96F
BAUDETTE       CLOUDY    43  39  86 SE9G20    30.04S
WASKISH        CLOUDY    43  41  93 E3        30.04S
CROOKSTON      MOSUNNY   46  43  87 SE16      29.94F
STEPHEN NDAWN    N/A     46  45  93 SE15        N/A
GREENBUSH NDAW   N/A     46  43  87 SE15        N/A
$$
  *****  WEATHER ACROSS CENTRAL AND WEST MINNESOTA  *****

CITY           SKY/WX    TMP DP  RH WIND       PRES   REMARKS
FOSSTON        MOSUNNY   46  43  87 E8        29.96F
BEMIDJI        CLOUDY    44  41  89 SE12      30.01F
PARK RAPIDS    CLOUDY    42  40  92 E16       30.00F
ELBOW LAKE     CLOUDY    44  42  90 E15G24    29.92F
WADENA         CLOUDY    41  39  93 E15       29.98F
DETROIT LAKES  CLOUDY    45  41  87 SE17G23   29.95S
MOORHEAD       NOT AVBL
FERGUS FALLS   MOSUNNY   46  39  76 SE16G22   29.93F
MORRIS MN      MOSUNNY   46  43  87 E22G30    29.91F
STAPLES        CLOUDY    41  39  93 E9        30.00F
$$
  *****  WEATHER ELSEWHERE ACROSS MINNESOTA  *****

CITY           SKY/WX    TMP DP  RH WIND       PRES   REMARKS
DULUTH         CLOUDY    44  39  82 E15       30.09F
INTRNTL FALLS  CLOUDY    42  39  89 SE8       30.08F
ELY            CLOUDY    39  37  93 SE10      30.12F
CLOQUET        CLOUDY    43  39  87 E12G20    30.09S
WHEATON        CLOUDY    45  41  87 SE16G28   29.91F
BRAINERD       CLOUDY    43  41  93 SE9G16    30.04F
HIBBING        CLOUDY    43  38  82 E10       30.09F
ALEXANDRIA     CLOUDY    42  41  96 E16G23    29.98S
SAINT CLOUD    CLOUDY    45  40  82 E12G17    30.03F
MINNEAPOLIS    CLOUDY    44  39  82 E14       30.05F
$$

  *****  WEATHER ACROSS SOUTH DAKOTA  *****

CITY           SKY/WX    TMP DP  RH WIND       PRES   REMARKS
SIOUX FALLS    CLOUDY    57  52  83 SE16G26   29.84S
BROOKINGS      NOT AVBL
WATERTOWN      CLOUDY    49  46  90 SE14G24   29.81F
HURON          LGT RAIN  57  54  89 SE14G26   29.70F
SISSETON       NOT AVBL
ABERDEEN       CLOUDY    56  50  80 SE12      29.74F
MITCHELL       RAIN      57  56  96 SE22      29.73F FOG
PIERRE         CLOUDY    62  58  86 SE28G37   29.51F
MOBRIDGE       CLOUDY    55  52  89 E21G36    29.59F
RAPID CITY     CLOUDY    54  50  86 N8        29.43S
$$

  *****  SOME WEATHER IN NEARBY STATES *****

CITY           SKY/WX    TMP DP  RH WIND       PRES   REMARKS
GLASGOW MT     CLOUDY    53  50  89 E6        29.62F
GREAT FALLS MT CLOUDY    54  44  69 SW14      29.69R
CHEYENNE WY    MOSUNNY   53  35  50 W25G37    29.86R
SCOTTSBLUFF NE CLOUDY    56  46  69 W13       29.72R
OMAHA NE       CLOUDY    67  58  72 SE10      29.87F
DES MOINES IA  CLOUDY    60  56  86 SE10G16   29.96F FOG
DAVENPORT IA   NOT AVBL
CHICAGO IL     CLOUDY    50  45  83 N10       30.05F
EAU CLAIRE WI  CLOUDY    43  37  79 E8        30.10S
LA CROSSE WI   CLOUDY    47  40  76 E9        30.09F
$$

  *****  SOME NATIONAL WEATHER *****

CITY           SKY/WX    TMP DP  RH WIND       PRES   REMARKS
LA GUARDIA NY  CLOUDY    67  58  72 NE13      29.95F
RALEIGH NC     CLOUDY    66  61  84 CALM      29.95S HAZE
ATLANTA GA     MOSUNNY   72  62  71 E7        29.98F
NEW ORLEANS LA PTSUNNY   81  71  71 E5        29.91R
OKLAHOMA CITY  PTSUNNY   76  64  66 S13       29.91S
ALBUQUERQUE NM SUNNY     54  37  52 CALM      30.06S
SALT LAKE CITY PTSUNNY   55  48  77 CALM      29.98R
LOS ANGELES CA MOSUNNY   66  57  72 CALM      29.87R
BOISE ID       CLOUDY    54  52  94 W7        29.97R FOG
SEATTLE WA     CLOUDY    55  51  86 S5        30.07R
$$

*** WEATHER ACROSS MANITOBA...SASKATCHEWAN AND ONTARIO ***
                ***ONTARIO***

CITY           SKY/WX    TMP DP  RH WIND       PRES   REMARKS
GERALDTON      NOT AVBL
THUNDER BAY    MOSUNNY   45  37  76 E3        30.18F
SIOUX LOOKOUT  NOT AVBL
TORONTO        PTSUNNY   66  59  77 VRB2      29.89S
BIG TROUT LK   CLOUDY    43  37  81 SW10      30.08F
PICKLE LAKE    DRIZZLE   37  36  93 W9        30.12F FOG
DRYDEN         CLOUDY    41  39  93 SE8       30.08F
KENORA         CLOUDY    43  41  93 S14       30.04F
$$
                *** MANITOBA***

CITY           SKY/WX    TMP DP  RH WIND       PRES   REMARKS
BRANDON        NOT AVBL
DAUPHIN        PTSUNNY   48  46  93 SE15      29.81F
ISLAND LAKE    CLOUDY    46  41  81 SE6       29.98F
PILOT MOUND      N/A     45  43  93 SE20        N/A
THE PAS        LGT RAIN  46  45  93 SE12      29.76S
THOMPSON       CLOUDY    45  45 100 SE6       29.85F
WINNIPEG       CLOUDY    45  43  93 SE17      29.95F
LYNN LAKE      CLOUDY    43  39  87 S12G20    29.72S
CHURCHILL      CLOUDY    39  37  93 SE14G21   29.96F
GILLAM         CLOUDY    45  43  93 SE6       29.93S
$$
                ***SASKATCHEWAN***

CITY           SKY/WX    TMP DP  RH WIND       PRES   REMARKS
ESTEVAN        FOG       50  50 100 SE10      29.72F VSB 1
KINDERSLEY     NOT AVBL
LLOYDMINSTER   NOT AVBL
PRINCE ALBERT  LGT RAIN  52  48  87 S9        29.61F
REGINA         LGT RAIN  52  52 100 SE14G21   29.66F FOG
YORKTON        LGT RAIN  50  46  87 SE14G20   29.72F FOG
N. BATTLEFORD  CLOUDY    50  48  93 SE7       29.56F FOG
LA RONGE       NOT AVBL
SASKATOON      NOT AVBL
SWIFT CURRENT  MOSUNNY   54  48  82 S14       29.54S
$$
NOTE: THESE ARE AUTOMATED STATIONS WITH LIMITED QUALITY CONTROL
      "FAIR" INDICATES FEW OR NO CLOUDS BELOW 12,000 FEET WITH NO
      SIGNIFICANT WEATHER AND/OR OBSTRUCTIONS TO VISIBILITY.
      SKY/WX - SKY CONDITION AND SIGNIFICANT WEATHER.
      TMP - AIR TEMPERATURE.    DP   - DEWPOINT TEMPERATURE.
      RH  - RELATIVE HUMIDITY.  PRES - PRESSURE.
      HX  - HEAT INDEX.         WCI  - WIND CHILL INDEX.
$



USA.gov is the U.S. government's official web portal to all federal, state and local government web resources and services.